Location: Balaclava NSW 2575, Australia
(34.4510°S, 150.4953°E)
Time: 22:14:44
(UTC+10:00)

XW-2C - Pass Details

Date: 05 August 2021
Orbit: 505 x 524 km, 97.5° (Epoch: 26 September)

Event Time Altitude Azimuth Distance (km) Brightness Sun altitude
Rises 18:26:01 0° 180° (S) 2,660 ? -13.9°
Reaches altitude 10° 18:28:18 10° 191° (S) 1,760 ? -14.3°
Maximum altitude 18:31:39 31° 253° (WSW) 935 ? -15.0°
Drops below altitude 10° 18:34:58 10° 315° (NW) 1,729 ? -15.7°
Sets 18:37:11 0° 326° (NW) 2,603 ? -16.1°
